<?xml version="1.0" encoding="UTF-8" standalone="no" ?>
<gpx xmlns="http://www.topografix.com/GPX/1/1" xmlns:xsi="http://www.w3.org/2001/XMLSchema-instance" xsi:schemaLocation="http://www.topografix.com/GPX/1/1 http://www.topografix.com/GPX/1/1/gpx.xsd" version="1.1" creator="VisuGPX - https://www.visugpx.com">
  <metadata>
    <name>MARCHE D AUTOMNE 20 10 2024 1</name>
    <desc><![CDATA[FAIT]]></desc>
  </metadata>
  <trk>
    <name><![CDATA[MARCHE D AUTOMNE 1 LE  20/10/2024-20135060]]></name>
    <trkseg>
      <trkpt lat="49.19541" lon="1.9279">
        <ele>125</ele>
        <time>2024-10-25T07:15:21Z</time>
      </trkpt>
      <trkpt lat="49.19534" lon="1.92801">
        <ele>125</ele>
        <time>2024-10-25T07:15:34Z</time>
      </trkpt>
      <trkpt lat="49.19533" lon="1.92843">
        <ele>125</ele>
        <time>2024-10-25T07:16:11Z</time>
      </trkpt>
      <trkpt lat="49.19524" lon="1.92884">
        <ele>124</ele>
        <time>2024-10-25T07:16:49Z</time>
      </trkpt>
      <trkpt lat="49.19528" lon="1.92918">
        <ele>124</ele>
        <time>2024-10-25T07:17:19Z</time>
      </trkpt>
      <trkpt lat="49.19535" lon="1.9294">
        <ele>123</ele>
        <time>2024-10-25T07:17:40Z</time>
      </trkpt>
      <trkpt lat="49.19529" lon="1.9299">
        <ele>121</ele>
        <time>2024-10-25T07:18:25Z</time>
      </trkpt>
      <trkpt lat="49.19502" lon="1.93031">
        <ele>118</ele>
        <time>2024-10-25T07:19:15Z</time>
      </trkpt>
      <trkpt lat="49.19462" lon="1.93111">
        <ele>110</ele>
        <time>2024-10-25T07:20:43Z</time>
      </trkpt>
      <trkpt lat="49.1945" lon="1.93147">
        <ele>108</ele>
        <time>2024-10-25T07:21:18Z</time>
      </trkpt>
      <trkpt lat="49.19433" lon="1.9317">
        <ele>106</ele>
        <time>2024-10-25T07:21:49Z</time>
      </trkpt>
      <trkpt lat="49.19414" lon="1.93208">
        <ele>103</ele>
        <time>2024-10-25T07:22:30Z</time>
      </trkpt>
      <trkpt lat="49.19407" lon="1.93342">
        <ele>101</ele>
        <time>2024-10-25T07:24:28Z</time>
      </trkpt>
      <trkpt lat="49.19387" lon="1.93429">
        <ele>100</ele>
        <time>2024-10-25T07:25:48Z</time>
      </trkpt>
      <trkpt lat="49.1938" lon="1.93505">
        <ele>99</ele>
        <time>2024-10-25T07:26:55Z</time>
      </trkpt>
      <trkpt lat="49.19382" lon="1.9356">
        <ele>99</ele>
        <time>2024-10-25T07:27:43Z</time>
      </trkpt>
      <trkpt lat="49.19378" lon="1.93567">
        <ele>99</ele>
        <time>2024-10-25T07:27:51Z</time>
      </trkpt>
      <trkpt lat="49.19372" lon="1.93569">
        <ele>99</ele>
        <time>2024-10-25T07:27:59Z</time>
      </trkpt>
      <trkpt lat="49.19358" lon="1.93559">
        <ele>99</ele>
        <time>2024-10-25T07:28:20Z</time>
      </trkpt>
      <trkpt lat="49.1932" lon="1.93515">
        <ele>100</ele>
        <time>2024-10-25T07:29:24Z</time>
      </trkpt>
      <trkpt lat="49.19301" lon="1.93507">
        <ele>101</ele>
        <time>2024-10-25T07:29:50Z</time>
      </trkpt>
      <trkpt lat="49.19278" lon="1.93508">
        <ele>102</ele>
        <time>2024-10-25T07:30:21Z</time>
      </trkpt>
      <trkpt lat="49.19204" lon="1.93499">
        <ele>106</ele>
        <time>2024-10-25T07:32:00Z</time>
      </trkpt>
      <trkpt lat="49.19156" lon="1.93507">
        <ele>108</ele>
        <time>2024-10-25T07:33:04Z</time>
      </trkpt>
      <trkpt lat="49.19122" lon="1.93506">
        <ele>111</ele>
        <time>2024-10-25T07:33:49Z</time>
      </trkpt>
      <trkpt lat="49.19115" lon="1.93505">
        <ele>111</ele>
        <time>2024-10-25T07:33:59Z</time>
      </trkpt>
      <trkpt lat="49.19115" lon="1.93502">
        <ele>111</ele>
        <time>2024-10-25T07:34:01Z</time>
      </trkpt>
      <trkpt lat="49.19114" lon="1.93509">
        <ele>112</ele>
        <time>2024-10-25T07:34:08Z</time>
      </trkpt>
      <trkpt lat="49.19105" lon="1.93509">
        <ele>112</ele>
        <time>2024-10-25T07:34:20Z</time>
      </trkpt>
      <trkpt lat="49.19084" lon="1.93503">
        <ele>114</ele>
        <time>2024-10-25T07:34:48Z</time>
      </trkpt>
      <trkpt lat="49.19036" lon="1.93505">
        <ele>117</ele>
        <time>2024-10-25T07:35:52Z</time>
      </trkpt>
      <trkpt lat="49.18997" lon="1.93497">
        <ele>120</ele>
        <time>2024-10-25T07:36:45Z</time>
      </trkpt>
      <trkpt lat="49.18986" lon="1.93498">
        <ele>120</ele>
        <time>2024-10-25T07:36:59Z</time>
      </trkpt>
      <trkpt lat="49.18953" lon="1.93489">
        <ele>119</ele>
        <time>2024-10-25T07:37:44Z</time>
      </trkpt>
      <trkpt lat="49.18923" lon="1.93489">
        <ele>119</ele>
        <time>2024-10-25T07:38:24Z</time>
      </trkpt>
      <trkpt lat="49.18915" lon="1.93481">
        <ele>118</ele>
        <time>2024-10-25T07:38:37Z</time>
      </trkpt>
      <trkpt lat="49.18871" lon="1.93477">
        <ele>118</ele>
        <time>2024-10-25T07:39:36Z</time>
      </trkpt>
      <trkpt lat="49.18856" lon="1.93471">
        <ele>118</ele>
        <time>2024-10-25T07:39:57Z</time>
      </trkpt>
      <trkpt lat="49.18812" lon="1.93471">
        <ele>118</ele>
        <time>2024-10-25T07:40:55Z</time>
      </trkpt>
      <trkpt lat="49.18796" lon="1.93465">
        <ele>118</ele>
        <time>2024-10-25T07:41:17Z</time>
      </trkpt>
      <trkpt lat="49.18726" lon="1.93457">
        <ele>118</ele>
        <time>2024-10-25T07:42:51Z</time>
      </trkpt>
      <trkpt lat="49.18694" lon="1.93442">
        <ele>118</ele>
        <time>2024-10-25T07:43:36Z</time>
      </trkpt>
      <trkpt lat="49.18671" lon="1.93448">
        <ele>118</ele>
        <time>2024-10-25T07:44:07Z</time>
      </trkpt>
      <trkpt lat="49.18615" lon="1.93431">
        <ele>117</ele>
        <time>2024-10-25T07:45:23Z</time>
      </trkpt>
      <trkpt lat="49.18584" lon="1.93429">
        <ele>116</ele>
        <time>2024-10-25T07:46:04Z</time>
      </trkpt>
      <trkpt lat="49.18567" lon="1.93423">
        <ele>116</ele>
        <time>2024-10-25T07:46:28Z</time>
      </trkpt>
      <trkpt lat="49.18546" lon="1.93429">
        <ele>116</ele>
        <time>2024-10-25T07:46:56Z</time>
      </trkpt>
      <trkpt lat="49.1853" lon="1.93422">
        <ele>116</ele>
        <time>2024-10-25T07:47:18Z</time>
      </trkpt>
      <trkpt lat="49.18502" lon="1.93418">
        <ele>116</ele>
        <time>2024-10-25T07:47:56Z</time>
      </trkpt>
      <trkpt lat="49.18464" lon="1.93402">
        <ele>117</ele>
        <time>2024-10-25T07:48:48Z</time>
      </trkpt>
      <trkpt lat="49.18448" lon="1.93394">
        <ele>117</ele>
        <time>2024-10-25T07:49:11Z</time>
      </trkpt>
      <trkpt lat="49.18434" lon="1.93381">
        <ele>117</ele>
        <time>2024-10-25T07:49:33Z</time>
      </trkpt>
      <trkpt lat="49.18399" lon="1.93367">
        <ele>116</ele>
        <time>2024-10-25T07:50:21Z</time>
      </trkpt>
      <trkpt lat="49.18359" lon="1.93357">
        <ele>113</ele>
        <time>2024-10-25T07:51:15Z</time>
      </trkpt>
      <trkpt lat="49.1832" lon="1.93354">
        <ele>110</ele>
        <time>2024-10-25T07:52:07Z</time>
      </trkpt>
      <trkpt lat="49.18306" lon="1.93346">
        <ele>110</ele>
        <time>2024-10-25T07:52:27Z</time>
      </trkpt>
      <trkpt lat="49.18286" lon="1.93346">
        <ele>109</ele>
        <time>2024-10-25T07:52:54Z</time>
      </trkpt>
      <trkpt lat="49.18265" lon="1.93339">
        <ele>108</ele>
        <time>2024-10-25T07:53:22Z</time>
      </trkpt>
      <trkpt lat="49.18252" lon="1.9334">
        <ele>107</ele>
        <time>2024-10-25T07:53:40Z</time>
      </trkpt>
      <trkpt lat="49.18228" lon="1.93331">
        <ele>106</ele>
        <time>2024-10-25T07:54:13Z</time>
      </trkpt>
      <trkpt lat="49.18183" lon="1.93328">
        <ele>104</ele>
        <time>2024-10-25T07:55:13Z</time>
      </trkpt>
      <trkpt lat="49.18151" lon="1.93319">
        <ele>102</ele>
        <time>2024-10-25T07:55:56Z</time>
      </trkpt>
      <trkpt lat="49.18114" lon="1.93322">
        <ele>100</ele>
        <time>2024-10-25T07:56:46Z</time>
      </trkpt>
      <trkpt lat="49.1809" lon="1.93311">
        <ele>98</ele>
        <time>2024-10-25T07:57:19Z</time>
      </trkpt>
      <trkpt lat="49.18085" lon="1.93306">
        <ele>97</ele>
        <time>2024-10-25T07:57:27Z</time>
      </trkpt>
      <trkpt lat="49.18086" lon="1.93302">
        <ele>97</ele>
        <time>2024-10-25T07:57:31Z</time>
      </trkpt>
      <trkpt lat="49.18086" lon="1.93306">
        <ele>98</ele>
        <time>2024-10-25T07:57:34Z</time>
      </trkpt>
      <trkpt lat="49.18078" lon="1.9331">
        <ele>97</ele>
        <time>2024-10-25T07:57:46Z</time>
      </trkpt>
      <trkpt lat="49.17989" lon="1.93301">
        <ele>92</ele>
        <time>2024-10-25T07:59:45Z</time>
      </trkpt>
      <trkpt lat="49.1794" lon="1.93292">
        <ele>91</ele>
        <time>2024-10-25T08:00:51Z</time>
      </trkpt>
      <trkpt lat="49.1785" lon="1.93251">
        <ele>86</ele>
        <time>2024-10-25T08:02:56Z</time>
      </trkpt>
      <trkpt lat="49.17785" lon="1.93197">
        <ele>79</ele>
        <time>2024-10-25T08:04:35Z</time>
      </trkpt>
      <trkpt lat="49.17739" lon="1.93141">
        <ele>74</ele>
        <time>2024-10-25T08:05:53Z</time>
      </trkpt>
      <trkpt lat="49.17716" lon="1.93135">
        <ele>72</ele>
        <time>2024-10-25T08:06:24Z</time>
      </trkpt>
      <trkpt lat="49.1768" lon="1.93155">
        <ele>71</ele>
        <time>2024-10-25T08:07:15Z</time>
      </trkpt>
      <trkpt lat="49.17668" lon="1.93156">
        <ele>71</ele>
        <time>2024-10-25T08:07:31Z</time>
      </trkpt>
      <trkpt lat="49.17625" lon="1.93131">
        <ele>68</ele>
        <time>2024-10-25T08:08:33Z</time>
      </trkpt>
      <trkpt lat="49.17609" lon="1.93126">
        <ele>68</ele>
        <time>2024-10-25T08:08:54Z</time>
      </trkpt>
      <trkpt lat="49.17597" lon="1.93132">
        <ele>67</ele>
        <time>2024-10-25T08:09:11Z</time>
      </trkpt>
      <trkpt lat="49.1759" lon="1.9313">
        <ele>67</ele>
        <time>2024-10-25T08:09:21Z</time>
      </trkpt>
      <trkpt lat="49.17571" lon="1.93118">
        <ele>68</ele>
        <time>2024-10-25T08:09:48Z</time>
      </trkpt>
      <trkpt lat="49.17548" lon="1.93092">
        <ele>70</ele>
        <time>2024-10-25T08:10:26Z</time>
      </trkpt>
      <trkpt lat="49.17537" lon="1.93089">
        <ele>71</ele>
        <time>2024-10-25T08:10:41Z</time>
      </trkpt>
      <trkpt lat="49.17514" lon="1.93127">
        <ele>72</ele>
        <time>2024-10-25T08:11:27Z</time>
      </trkpt>
      <trkpt lat="49.17478" lon="1.93156">
        <ele>73</ele>
        <time>2024-10-25T08:12:21Z</time>
      </trkpt>
      <trkpt lat="49.17468" lon="1.93175">
        <ele>72</ele>
        <time>2024-10-25T08:12:42Z</time>
      </trkpt>
      <trkpt lat="49.17457" lon="1.93186">
        <ele>72</ele>
        <time>2024-10-25T08:13:00Z</time>
      </trkpt>
      <trkpt lat="49.1743" lon="1.9319">
        <ele>73</ele>
        <time>2024-10-25T08:13:36Z</time>
      </trkpt>
      <trkpt lat="49.17403" lon="1.93201">
        <ele>73</ele>
        <time>2024-10-25T08:14:13Z</time>
      </trkpt>
      <trkpt lat="49.17386" lon="1.93201">
        <ele>73</ele>
        <time>2024-10-25T08:14:36Z</time>
      </trkpt>
      <trkpt lat="49.17354" lon="1.93193">
        <ele>74</ele>
        <time>2024-10-25T08:15:19Z</time>
      </trkpt>
      <trkpt lat="49.1733" lon="1.93198">
        <ele>74</ele>
        <time>2024-10-25T08:15:51Z</time>
      </trkpt>
      <trkpt lat="49.17287" lon="1.93233">
        <ele>73</ele>
        <time>2024-10-25T08:16:56Z</time>
      </trkpt>
      <trkpt lat="49.17246" lon="1.93257">
        <ele>72</ele>
        <time>2024-10-25T08:17:55Z</time>
      </trkpt>
      <trkpt lat="49.17236" lon="1.93257">
        <ele>73</ele>
        <time>2024-10-25T08:18:08Z</time>
      </trkpt>
      <trkpt lat="49.17206" lon="1.93269">
        <ele>74</ele>
        <time>2024-10-25T08:18:50Z</time>
      </trkpt>
      <trkpt lat="49.17154" lon="1.9331">
        <ele>72</ele>
        <time>2024-10-25T08:20:08Z</time>
      </trkpt>
      <trkpt lat="49.17135" lon="1.9332">
        <ele>71</ele>
        <time>2024-10-25T08:20:35Z</time>
      </trkpt>
      <trkpt lat="49.17116" lon="1.93317">
        <ele>71</ele>
        <time>2024-10-25T08:21:00Z</time>
      </trkpt>
      <trkpt lat="49.17097" lon="1.93307">
        <ele>72</ele>
        <time>2024-10-25T08:21:27Z</time>
      </trkpt>
      <trkpt lat="49.17085" lon="1.93295">
        <ele>73</ele>
        <time>2024-10-25T08:21:46Z</time>
      </trkpt>
      <trkpt lat="49.17067" lon="1.93291">
        <ele>73</ele>
        <time>2024-10-25T08:22:10Z</time>
      </trkpt>
      <trkpt lat="49.1704" lon="1.93277">
        <ele>74</ele>
        <time>2024-10-25T08:22:48Z</time>
      </trkpt>
      <trkpt lat="49.17004" lon="1.93253">
        <ele>75</ele>
        <time>2024-10-25T08:23:41Z</time>
      </trkpt>
      <trkpt lat="49.16967" lon="1.93246">
        <ele>77</ele>
        <time>2024-10-25T08:24:31Z</time>
      </trkpt>
      <trkpt lat="49.1694" lon="1.93248">
        <ele>77</ele>
        <time>2024-10-25T08:25:07Z</time>
      </trkpt>
      <trkpt lat="49.16919" lon="1.93255">
        <ele>77</ele>
        <time>2024-10-25T08:25:35Z</time>
      </trkpt>
      <trkpt lat="49.16907" lon="1.93264">
        <ele>78</ele>
        <time>2024-10-25T08:25:53Z</time>
      </trkpt>
      <trkpt lat="49.16862" lon="1.93276">
        <ele>82</ele>
        <time>2024-10-25T08:26:54Z</time>
      </trkpt>
      <trkpt lat="49.16855" lon="1.93284">
        <ele>82</ele>
        <time>2024-10-25T08:27:06Z</time>
      </trkpt>
      <trkpt lat="49.16839" lon="1.93291">
        <ele>84</ele>
        <time>2024-10-25T08:27:28Z</time>
      </trkpt>
      <trkpt lat="49.16825" lon="1.93306">
        <ele>84</ele>
        <time>2024-10-25T08:27:51Z</time>
      </trkpt>
      <trkpt lat="49.16792" lon="1.93326">
        <ele>86</ele>
        <time>2024-10-25T08:28:38Z</time>
      </trkpt>
      <trkpt lat="49.16745" lon="1.9333">
        <ele>88</ele>
        <time>2024-10-25T08:29:41Z</time>
      </trkpt>
      <trkpt lat="49.16715" lon="1.93325">
        <ele>89</ele>
        <time>2024-10-25T08:30:21Z</time>
      </trkpt>
      <trkpt lat="49.16663" lon="1.9334">
        <ele>89</ele>
        <time>2024-10-25T08:31:32Z</time>
      </trkpt>
      <trkpt lat="49.16535" lon="1.93421">
        <ele>86</ele>
        <time>2024-10-25T08:34:37Z</time>
      </trkpt>
      <trkpt lat="49.16487" lon="1.93435">
        <ele>83</ele>
        <time>2024-10-25T08:35:42Z</time>
      </trkpt>
      <trkpt lat="49.16462" lon="1.93438">
        <ele>82</ele>
        <time>2024-10-25T08:36:15Z</time>
      </trkpt>
      <trkpt lat="49.16425" lon="1.93436">
        <ele>80</ele>
        <time>2024-10-25T08:37:05Z</time>
      </trkpt>
      <trkpt lat="49.16409" lon="1.93445">
        <ele>79</ele>
        <time>2024-10-25T08:37:27Z</time>
      </trkpt>
      <trkpt lat="49.16367" lon="1.93455">
        <ele>78</ele>
        <time>2024-10-25T08:38:24Z</time>
      </trkpt>
      <trkpt lat="49.16335" lon="1.93487">
        <ele>73</ele>
        <time>2024-10-25T08:39:15Z</time>
      </trkpt>
      <trkpt lat="49.16313" lon="1.93496">
        <ele>73</ele>
        <time>2024-10-25T08:39:46Z</time>
      </trkpt>
      <trkpt lat="49.16303" lon="1.93496">
        <ele>74</ele>
        <time>2024-10-25T08:39:59Z</time>
      </trkpt>
      <trkpt lat="49.16274" lon="1.9351">
        <ele>74</ele>
        <time>2024-10-25T08:40:40Z</time>
      </trkpt>
      <trkpt lat="49.16246" lon="1.93545">
        <ele>72</ele>
        <time>2024-10-25T08:41:28Z</time>
      </trkpt>
      <trkpt lat="49.16213" lon="1.9357">
        <ele>71</ele>
        <time>2024-10-25T08:42:17Z</time>
      </trkpt>
      <trkpt lat="49.16186" lon="1.93597">
        <ele>69</ele>
        <time>2024-10-25T08:43:00Z</time>
      </trkpt>
      <trkpt lat="49.16164" lon="1.93626">
        <ele>68</ele>
        <time>2024-10-25T08:43:39Z</time>
      </trkpt>
      <trkpt lat="49.16161" lon="1.93636">
        <ele>67</ele>
        <time>2024-10-25T08:43:48Z</time>
      </trkpt>
      <trkpt lat="49.16148" lon="1.93644">
        <ele>66</ele>
        <time>2024-10-25T08:44:07Z</time>
      </trkpt>
      <trkpt lat="49.16132" lon="1.93639">
        <ele>66</ele>
        <time>2024-10-25T08:44:29Z</time>
      </trkpt>
      <trkpt lat="49.16112" lon="1.93617">
        <ele>67</ele>
        <time>2024-10-25T08:45:02Z</time>
      </trkpt>
      <trkpt lat="49.16083" lon="1.9361">
        <ele>67</ele>
        <time>2024-10-25T08:45:41Z</time>
      </trkpt>
      <trkpt lat="49.16071" lon="1.93612">
        <ele>66</ele>
        <time>2024-10-25T08:45:57Z</time>
      </trkpt>
      <trkpt lat="49.16055" lon="1.9363">
        <ele>65</ele>
        <time>2024-10-25T08:46:24Z</time>
      </trkpt>
      <trkpt lat="49.16026" lon="1.93639">
        <ele>65</ele>
        <time>2024-10-25T08:47:03Z</time>
      </trkpt>
      <trkpt lat="49.16021" lon="1.93637">
        <ele>65</ele>
        <time>2024-10-25T08:47:10Z</time>
      </trkpt>
      <trkpt lat="49.16022" lon="1.93631">
        <ele>65</ele>
        <time>2024-10-25T08:47:15Z</time>
      </trkpt>
      <trkpt lat="49.16022" lon="1.9364">
        <ele>65</ele>
        <time>2024-10-25T08:47:23Z</time>
      </trkpt>
      <trkpt lat="49.15989" lon="1.93637">
        <ele>64</ele>
        <time>2024-10-25T08:48:07Z</time>
      </trkpt>
      <trkpt lat="49.15963" lon="1.93628">
        <ele>64</ele>
        <time>2024-10-25T08:48:43Z</time>
      </trkpt>
      <trkpt lat="49.15922" lon="1.9363">
        <ele>63</ele>
        <time>2024-10-25T08:49:38Z</time>
      </trkpt>
      <trkpt lat="49.15875" lon="1.93621">
        <ele>62</ele>
        <time>2024-10-25T08:50:41Z</time>
      </trkpt>
      <trkpt lat="49.15782" lon="1.93639">
        <ele>62</ele>
        <time>2024-10-25T08:52:46Z</time>
      </trkpt>
      <trkpt lat="49.15703" lon="1.93673">
        <ele>61</ele>
        <time>2024-10-25T08:54:35Z</time>
      </trkpt>
      <trkpt lat="49.1566" lon="1.93697">
        <ele>61</ele>
        <time>2024-10-25T08:55:37Z</time>
      </trkpt>
      <trkpt lat="49.15618" lon="1.93729">
        <ele>61</ele>
        <time>2024-10-25T08:56:39Z</time>
      </trkpt>
      <trkpt lat="49.15579" lon="1.93767">
        <ele>62</ele>
        <time>2024-10-25T08:57:41Z</time>
      </trkpt>
      <trkpt lat="49.15533" lon="1.93801">
        <ele>61</ele>
        <time>2024-10-25T08:58:49Z</time>
      </trkpt>
      <trkpt lat="49.15456" lon="1.93887">
        <ele>60</ele>
        <time>2024-10-25T09:00:56Z</time>
      </trkpt>
      <trkpt lat="49.15402" lon="1.93925">
        <ele>59</ele>
        <time>2024-10-25T09:02:16Z</time>
      </trkpt>
      <trkpt lat="49.15357" lon="1.9395">
        <ele>61</ele>
        <time>2024-10-25T09:03:19Z</time>
      </trkpt>
      <trkpt lat="49.15347" lon="1.9396">
        <ele>62</ele>
        <time>2024-10-25T09:03:35Z</time>
      </trkpt>
      <trkpt lat="49.15327" lon="1.93969">
        <ele>62</ele>
        <time>2024-10-25T09:04:03Z</time>
      </trkpt>
      <trkpt lat="49.15303" lon="1.93919">
        <ele>61</ele>
        <time>2024-10-25T09:04:57Z</time>
      </trkpt>
      <trkpt lat="49.15295" lon="1.93872">
        <ele>63</ele>
        <time>2024-10-25T09:05:40Z</time>
      </trkpt>
      <trkpt lat="49.15281" lon="1.93845">
        <ele>65</ele>
        <time>2024-10-25T09:06:10Z</time>
      </trkpt>
      <trkpt lat="49.15269" lon="1.93858">
        <ele>66</ele>
        <time>2024-10-25T09:06:29Z</time>
      </trkpt>
      <trkpt lat="49.15235" lon="1.93936">
        <ele>63</ele>
        <time>2024-10-25T09:07:51Z</time>
      </trkpt>
      <trkpt lat="49.15218" lon="1.93954">
        <ele>62</ele>
        <time>2024-10-25T09:08:19Z</time>
      </trkpt>
      <trkpt lat="49.15202" lon="1.93958">
        <ele>62</ele>
        <time>2024-10-25T09:08:41Z</time>
      </trkpt>
      <trkpt lat="49.15177" lon="1.93945">
        <ele>63</ele>
        <time>2024-10-25T09:09:16Z</time>
      </trkpt>
      <trkpt lat="49.15166" lon="1.93934">
        <ele>63</ele>
        <time>2024-10-25T09:09:33Z</time>
      </trkpt>
      <trkpt lat="49.15145" lon="1.93895">
        <ele>64</ele>
        <time>2024-10-25T09:10:17Z</time>
      </trkpt>
      <trkpt lat="49.15132" lon="1.93833">
        <ele>67</ele>
        <time>2024-10-25T09:11:14Z</time>
      </trkpt>
      <trkpt lat="49.15119" lon="1.93797">
        <ele>69</ele>
        <time>2024-10-25T09:11:50Z</time>
      </trkpt>
      <trkpt lat="49.15099" lon="1.9376">
        <ele>70</ele>
        <time>2024-10-25T09:12:32Z</time>
      </trkpt>
      <trkpt lat="49.15085" lon="1.93719">
        <ele>72</ele>
        <time>2024-10-25T09:13:12Z</time>
      </trkpt>
      <trkpt lat="49.15035" lon="1.93642">
        <ele>76</ele>
        <time>2024-10-25T09:14:47Z</time>
      </trkpt>
      <trkpt lat="49.14981" lon="1.93596">
        <ele>77</ele>
        <time>2024-10-25T09:16:10Z</time>
      </trkpt>
      <trkpt lat="49.14931" lon="1.9357">
        <ele>76</ele>
        <time>2024-10-25T09:17:20Z</time>
      </trkpt>
      <trkpt lat="49.14901" lon="1.93565">
        <ele>75</ele>
        <time>2024-10-25T09:18:00Z</time>
      </trkpt>
      <trkpt lat="49.14871" lon="1.93546">
        <ele>76</ele>
        <time>2024-10-25T09:18:44Z</time>
      </trkpt>
      <trkpt lat="49.14855" lon="1.93547">
        <ele>75</ele>
        <time>2024-10-25T09:19:05Z</time>
      </trkpt>
      <trkpt lat="49.14844" lon="1.93539">
        <ele>76</ele>
        <time>2024-10-25T09:19:21Z</time>
      </trkpt>
      <trkpt lat="49.14834" lon="1.9354">
        <ele>76</ele>
        <time>2024-10-25T09:19:35Z</time>
      </trkpt>
      <trkpt lat="49.14815" lon="1.93549">
        <ele>75</ele>
        <time>2024-10-25T09:20:01Z</time>
      </trkpt>
      <trkpt lat="49.14803" lon="1.93563">
        <ele>73</ele>
        <time>2024-10-25T09:20:21Z</time>
      </trkpt>
      <trkpt lat="49.14792" lon="1.93565">
        <ele>73</ele>
        <time>2024-10-25T09:20:36Z</time>
      </trkpt>
      <trkpt lat="49.1475" lon="1.93586">
        <ele>71</ele>
        <time>2024-10-25T09:21:35Z</time>
      </trkpt>
      <trkpt lat="49.14735" lon="1.93599">
        <ele>68</ele>
        <time>2024-10-25T09:21:58Z</time>
      </trkpt>
      <trkpt lat="49.14676" lon="1.93605">
        <ele>65</ele>
        <time>2024-10-25T09:23:17Z</time>
      </trkpt>
      <trkpt lat="49.14661" lon="1.93618">
        <ele>63</ele>
        <time>2024-10-25T09:23:40Z</time>
      </trkpt>
      <trkpt lat="49.14659" lon="1.93657">
        <ele>58</ele>
        <time>2024-10-25T09:24:14Z</time>
      </trkpt>
      <trkpt lat="49.14662" lon="1.93693">
        <ele>57</ele>
        <time>2024-10-25T09:24:46Z</time>
      </trkpt>
      <trkpt lat="49.14658" lon="1.93715">
        <ele>57</ele>
        <time>2024-10-25T09:25:06Z</time>
      </trkpt>
      <trkpt lat="49.14646" lon="1.9375">
        <ele>57</ele>
        <time>2024-10-25T09:25:40Z</time>
      </trkpt>
      <trkpt lat="49.1463" lon="1.9377">
        <ele>57</ele>
        <time>2024-10-25T09:26:08Z</time>
      </trkpt>
      <trkpt lat="49.14622" lon="1.9379">
        <ele>57</ele>
        <time>2024-10-25T09:26:28Z</time>
      </trkpt>
      <trkpt lat="49.14623" lon="1.9388">
        <ele>60</ele>
        <time>2024-10-25T09:27:47Z</time>
      </trkpt>
      <trkpt lat="49.1462" lon="1.93891">
        <ele>60</ele>
        <time>2024-10-25T09:27:57Z</time>
      </trkpt>
      <trkpt lat="49.14626" lon="1.93932">
        <ele>63</ele>
        <time>2024-10-25T09:28:34Z</time>
      </trkpt>
      <trkpt lat="49.14635" lon="1.93951">
        <ele>65</ele>
        <time>2024-10-25T09:28:54Z</time>
      </trkpt>
      <trkpt lat="49.14631" lon="1.93967">
        <ele>66</ele>
        <time>2024-10-25T09:29:09Z</time>
      </trkpt>
      <trkpt lat="49.14606" lon="1.93998">
        <ele>66</ele>
        <time>2024-10-25T09:29:52Z</time>
      </trkpt>
      <trkpt lat="49.14593" lon="1.94005">
        <ele>65</ele>
        <time>2024-10-25T09:30:11Z</time>
      </trkpt>
      <trkpt lat="49.14546" lon="1.9399">
        <ele>66</ele>
        <time>2024-10-25T09:31:15Z</time>
      </trkpt>
      <trkpt lat="49.14501" lon="1.93952">
        <ele>66</ele>
        <time>2024-10-25T09:32:23Z</time>
      </trkpt>
      <trkpt lat="49.14495" lon="1.93941">
        <ele>66</ele>
        <time>2024-10-25T09:32:36Z</time>
      </trkpt>
      <trkpt lat="49.14486" lon="1.93937">
        <ele>66</ele>
        <time>2024-10-25T09:32:48Z</time>
      </trkpt>
      <trkpt lat="49.14465" lon="1.93939">
        <ele>66</ele>
        <time>2024-10-25T09:33:17Z</time>
      </trkpt>
      <trkpt lat="49.1446" lon="1.93943">
        <ele>67</ele>
        <time>2024-10-25T09:33:24Z</time>
      </trkpt>
      <trkpt lat="49.14465" lon="1.93946">
        <ele>67</ele>
        <time>2024-10-25T09:33:31Z</time>
      </trkpt>
      <trkpt lat="49.14463" lon="1.93954">
        <ele>68</ele>
        <time>2024-10-25T09:33:39Z</time>
      </trkpt>
      <trkpt lat="49.14459" lon="1.93936">
        <ele>66</ele>
        <time>2024-10-25T09:33:55Z</time>
      </trkpt>
      <trkpt lat="49.14462" lon="1.93945">
        <ele>67</ele>
        <time>2024-10-25T09:34:04Z</time>
      </trkpt>
      <trkpt lat="49.1441" lon="1.93965">
        <ele>71</ele>
        <time>2024-10-25T09:35:16Z</time>
      </trkpt>
      <trkpt lat="49.14345" lon="1.94003">
        <ele>75</ele>
        <time>2024-10-25T09:36:49Z</time>
      </trkpt>
      <trkpt lat="49.14319" lon="1.94011">
        <ele>76</ele>
        <time>2024-10-25T09:37:24Z</time>
      </trkpt>
      <trkpt lat="49.14296" lon="1.9401">
        <ele>76</ele>
        <time>2024-10-25T09:37:55Z</time>
      </trkpt>
      <trkpt lat="49.14256" lon="1.93988">
        <ele>73</ele>
        <time>2024-10-25T09:38:51Z</time>
      </trkpt>
      <trkpt lat="49.14235" lon="1.93988">
        <ele>73</ele>
        <time>2024-10-25T09:39:19Z</time>
      </trkpt>
      <trkpt lat="49.14223" lon="1.93982">
        <ele>72</ele>
        <time>2024-10-25T09:39:36Z</time>
      </trkpt>
      <trkpt lat="49.14212" lon="1.93984">
        <ele>72</ele>
        <time>2024-10-25T09:39:51Z</time>
      </trkpt>
      <trkpt lat="49.14196" lon="1.93978">
        <ele>71</ele>
        <time>2024-10-25T09:40:13Z</time>
      </trkpt>
      <trkpt lat="49.14182" lon="1.9398">
        <ele>71</ele>
        <time>2024-10-25T09:40:32Z</time>
      </trkpt>
      <trkpt lat="49.1416" lon="1.93969">
        <ele>69</ele>
        <time>2024-10-25T09:41:03Z</time>
      </trkpt>
      <trkpt lat="49.14143" lon="1.93969">
        <ele>69</ele>
        <time>2024-10-25T09:41:25Z</time>
      </trkpt>
      <trkpt lat="49.14122" lon="1.93978">
        <ele>70</ele>
        <time>2024-10-25T09:41:54Z</time>
      </trkpt>
      <trkpt lat="49.14091" lon="1.93981">
        <ele>70</ele>
        <time>2024-10-25T09:42:36Z</time>
      </trkpt>
      <trkpt lat="49.14009" lon="1.93979">
        <ele>67</ele>
        <time>2024-10-25T09:44:25Z</time>
      </trkpt>
      <trkpt lat="49.13973" lon="1.9399">
        <ele>66</ele>
        <time>2024-10-25T09:45:14Z</time>
      </trkpt>
      <trkpt lat="49.13947" lon="1.94006">
        <ele>65</ele>
        <time>2024-10-25T09:45:52Z</time>
      </trkpt>
      <trkpt lat="49.139" lon="1.94072">
        <ele>64</ele>
        <time>2024-10-25T09:47:17Z</time>
      </trkpt>
      <trkpt lat="49.13861" lon="1.94154">
        <ele>65</ele>
        <time>2024-10-25T09:48:45Z</time>
      </trkpt>
      <trkpt lat="49.13843" lon="1.94241">
        <ele>66</ele>
        <time>2024-10-25T09:50:05Z</time>
      </trkpt>
      <trkpt lat="49.13825" lon="1.94271">
        <ele>66</ele>
        <time>2024-10-25T09:50:41Z</time>
      </trkpt>
      <trkpt lat="49.13806" lon="1.94292">
        <ele>66</ele>
        <time>2024-10-25T09:51:12Z</time>
      </trkpt>
      <trkpt lat="49.13792" lon="1.94296">
        <ele>65</ele>
        <time>2024-10-25T09:51:31Z</time>
      </trkpt>
      <trkpt lat="49.13758" lon="1.9433">
        <ele>64</ele>
        <time>2024-10-25T09:52:25Z</time>
      </trkpt>
      <trkpt lat="49.13741" lon="1.94341">
        <ele>63</ele>
        <time>2024-10-25T09:52:50Z</time>
      </trkpt>
      <trkpt lat="49.13724" lon="1.94344">
        <ele>63</ele>
        <time>2024-10-25T09:53:13Z</time>
      </trkpt>
      <trkpt lat="49.13708" lon="1.94335">
        <ele>62</ele>
        <time>2024-10-25T09:53:35Z</time>
      </trkpt>
    </trkseg>
  </trk>
</gpx>